Terug naar catalogus

OTTER SDM

ActiefWetenschapSSO
NORAD 66678·PAYLOAD·🇺🇸 United States

Gelanceerd Nov 28, 2025 vanaf Vandenberg Space Force Base

Loading…

Volgende Passages (komende 24 uur)

TLE

VersSource: Space-Track

Epoch: Sep 13, 2026, 17:07 UTC

1 66678U 25276N   26256.71334559  .00004479  00000-0  20691-3 0  9998
2 66678  97.4139 328.7435 0006855  59.1431 301.0478 15.20682857 43865

Volg OTTER SDM in realtime met AllMySat

Download on the App Store